Weather History for Hyannis, MA

Change the Weather History Date:

Friday, November 15, 2013

  Actual Average Record
Temperature  
Mean Temperature 52 °F -  
Max Temperature 60 °F 50 °F 65 °F (1959)
Min Temperature 44 °F 35 °F 20 °F (1942)
Degree Days  
Heating Degree Days 13    
Growing Degree Days 2 (Base 50)    
Moisture  
Dew Point 39 °F    
Average Humidity 66    
Maximum Humidity 93    
Minimum Humidity 44    
Precipitation  
Precipitation 0.00 in - - ()
Sea Level Pressure  
Sea Level Pressure 30.18 in    
Wind  
Wind Speed 10 mph (SW)    
Max Wind Speed 23 mph    
Max Gust Speed 28 mph    
Visibility 10 miles    
Events      
Averages and records for this station are not official NWS values.
T = Trace of Precipitation, MM = Missing Value Source: NWS Daily Summary

Daily Weather History Graph

Daily Weather History Graph

Search for Another Location

Airport:

Trip Planner

Search our weather history database for the weather conditions in past years. The results will help you decide how hot, cold, wet, or windy it might be!

Date:

Astronomy

Nov. 15, 2013 Rise Set
Actual Time 6:30 AM EST 4:20 PM EST
Civil Twilight 6:00 AM EST 4:50 PM EST
Nautical Twilight 5:26 AM EST 5:24 PM EST
Astronomical Twilight 4:54 AM EST 5:56 PM EST
Moon 3:16 PM EST (11/15) 4:22 AM EST (11/15)
Length of Visible Light 10h 49m
Length of Day
9h 50m
Waxing Gibbous, 96% of the Moon is Illuminated
Nov 15
Waxing Gibbous
Nov 17
Full
Nov 25
Last Quarter
Dec 2
New
Dec 9
First Quarter

Hourly Weather History & Observations

Time (EST) Temp. Windchill Dew Point Humidity Pressure Visibility Wind Dir Wind Speed Gust Speed Precip Events Conditions
12:56 AM 45.0 °F 41.2 °F 32.0 °F 60% 30.14 in 10.0 mi WSW 6.9 mph - N/A   Clear
1:56 AM 46.9 °F - 33.1 °F 59% 30.14 in 10.0 mi WSW 10.4 mph - N/A   Clear
2:56 AM 46.0 °F 41.4 °F 33.1 °F 61% 30.15 in 10.0 mi WSW 9.2 mph - N/A   Clear
3:56 AM 44.1 °F 39.0 °F 33.1 °F 65% 30.17 in 10.0 mi SW 9.2 mph - N/A   Clear
4:56 AM 46.0 °F 41.9 °F 33.1 °F 61% 30.17 in 10.0 mi West 8.1 mph - N/A   Clear
5:56 AM 45.0 °F 40.1 °F 30.0 °F 56% 30.19 in 10.0 mi WSW 9.2 mph - N/A   Clear
6:56 AM 45.0 °F 42.6 °F 28.0 °F 52% 30.21 in 10.0 mi SSW 4.6 mph - N/A   Clear
7:56 AM 50.0 °F - 30.0 °F 46% 30.22 in 10.0 mi WSW 10.4 mph - N/A   Clear
8:56 AM 53.1 °F - 33.1 °F 47% 30.22 in 10.0 mi SW 10.4 mph - N/A   Clear
9:56 AM 55.9 °F - 37.9 °F 51% 30.21 in 10.0 mi SW 13.8 mph - N/A   Clear
10:56 AM 57.9 °F - 36.0 °F 44% 30.20 in 10.0 mi WSW 23.0 mph 27.6 mph N/A   Clear
11:56 AM 57.0 °F - 39.9 °F 53% 30.18 in 10.0 mi WSW 19.6 mph 25.3 mph N/A   Clear
12:56 PM 60.1 °F - 39.9 °F 47% 30.18 in 10.0 mi WSW 18.4 mph 24.2 mph N/A   Clear
1:56 PM 57.0 °F - 43.0 °F 59% 30.16 in 10.0 mi SW 13.8 mph - N/A   Clear
2:56 PM 57.0 °F - 44.1 °F 62% 30.16 in 10.0 mi SW 12.7 mph - N/A   Clear
3:56 PM 54.0 °F - 45.0 °F 72% 30.17 in 10.0 mi SW 11.5 mph - N/A   Clear
4:56 PM 54.0 °F - 46.9 °F 77% 30.17 in 10.0 mi SW 15.0 mph 23.0 mph N/A   Clear
5:56 PM 52.0 °F - 46.9 °F 83% 30.18 in 10.0 mi SW 10.4 mph - N/A   Clear
6:56 PM 52.0 °F - 48.0 °F 86% 30.17 in 10.0 mi SSW 8.1 mph - N/A   Clear
7:56 PM 52.0 °F - 46.0 °F 80% 30.18 in 10.0 mi SSW 9.2 mph - N/A   Clear
8:56 PM 51.1 °F - 46.0 °F 83% 30.18 in 10.0 mi SSW 4.6 mph - N/A   Clear
9:56 PM 46.9 °F - 43.0 °F 86% 30.20 in 10.0 mi SSW 3.5 mph - N/A   Clear
10:56 PM 45.0 °F 43.5 °F 42.1 °F 90% 30.20 in 10.0 mi WSW 3.5 mph - N/A   Clear
11:56 PM 46.0 °F 43.9 °F 44.1 °F 93% 30.21 in 8.0 mi SW 4.6 mph - N/A   Clear